Probability
28 28 29 29 28 27 27 25 22 23 25 24 21 21 22 22 22 21 20 20 20 20 20 20 21 22 21 19 19 18 19 18 18 17 16 16 16 15 15 15 14 13 12
30 29 29 28 26 25 25 24 23 23 23 21 20 21 22 22 22 22 21 20 19 19 20 20 21 21 20 18 18 18 18 17 16 15 14 15 16 16 16 15 14 12 12
31 30 30 29 28 27 26 25 25 25 22 20 21 22 21 21 21 20 19 19 18 18 17 17 18 18 18 16 16 17 16 16 16 14 13 15 17 17 18 18 15 13 12
32 32 32 32 32 30 28 27 27 27 25 23 24 24 21 18 18 16 16 17 18 16 14 13 13 13 13 12 12 13 14 15 16 15 13 14 17 18 19 18 16 12 9
35 35 35 34 33 31 29 29 30 31 28 26 25 25 20 14 12 12 11 14 16 14 11 10 9 9 8 8 8 9 10 12 14 14 11 13 18 19 18 16 13 9 5
39 39 38 36 34 32 32 32 32 32 30 26 25 24 18 12 7 6 7 9 11 11 9 8 7 6 7 7 7 6 5 6 8 9 9 12 16 17 16 14 11 6 3
43 43 42 42 40 38 36 35 33 31 29 27 25 23 19 11 5 2 2 5 7 7 6 6 6 5 5 7 7 5 3 2 3 5 7 9 11 12 12 12 9 5 2
46 45 45 46 45 42 39 37 35 32 30 28 27 26 20 12 4 0 0 2 5 4 3 3 4 3 4 5 6 5 3 1 1 3 4 5 5 5 7 8 6 3 1
45 45 46 47 46 43 39 39 37 36 34 31 29 26 21 13 5 1 0 2 4 4 2 1 2 2 2 3 4 6 5 4 3 2 2 2 1 2 2 4 4 2 0
42 43 46 47 45 42 41 39 38 38 38 34 29 25 20 15 9 2 1 3 5 5 3 2 1 1 2 3 4 6 6 6 5 3 1 2 2 2 1 1 2 1 1
39 41 44 44 40 37 39 41 40 39 39 36 30 24 19 17 12 4 1 4 6 6 6 6 4 2 1 2 3 5 5 5 5 4 3 4 5 4 2 1 1 2 2
40 41 41 40 36 33 36 38 37 36 37 35 30 22 18 17 13 6 2 2 5 8 10 10 7 3 1 1 1 3 3 2 3 4 4 5 5 4 3 2 1 1 1
42 43 42 40 38 36 34 32 30 29 29 28 24 20 18 18 15 9 3 1 2 6 9 8 5 2 1 0 0 1 1 1 2 3 3 3 2 2 2 1 1 1 1
42 43 42 40 40 39 35 29 25 23 24 23 20 18 19 20 18 13 8 4 3 4 6 5 2 1 0 0 0 0 0 0 1 1 1 1 0 1 1 0 0 0 1
40 39 36 34 35 35 32 27 22 21 22 21 19 17 18 19 17 15 12 9 7 7 7 6 5 3 2 2 1 1 0 1 1 0 0 0 0 0 0 0 0 0 0
37 35 29 27 28 28 26 22 19 18 17 15 14 13 13 13 11 10 9 8 8 8 10 11 10 8 6 6 6 4 2 2 2 1 0 0 1 0 0 0 0 0 0
33 29 24 22 21 21 19 18 18 16 12 9 7 7 7 6 5 3 3 3 3 6 12 15 14 12 11 10 10 8 5 5 3 1 0 0 0 0 0 0 0 0 0
26 21 18 18 17 15 15 16 18 16 13 9 6 4 2 2 1 0 1 3 4 8 13 16 16 15 14 13 12 11 9 7 4 2 0 0 0 0 0 0 0 0 0
18 13 12 13 13 12 12 14 16 15 13 10 9 5 1 0 0 0 3 8 11 13 15 15 15 15 13 12 11 11 10 8 5 3 1 1 1 0 0 0 0 0 0
14 9 7 8 9 9 10 11 13 13 11 9 9 7 3 2 2 2 5 10 13 14 14 13 11 10 10 8 8 9 8 7 5 4 3 3 2 1 1 0 0 0 0
10 7 5 6 7 8 8 9 10 10 9 8 8 7 5 4 4 4 6 9 11 12 12 9 6 6 7 7 6 6 6 5 5 4 4 4 3 2 1 0 0 0 0
8 7 6 6 7 8 8 8 8 9 7 7 6 5 4 4 4 5 7 9 10 10 9 7 5 5 6 7 6 5 5 5 5 4 4 4 3 2 1 0 0 0 0
6 6 6 6 7 8 9 8 7 7 6 6 5 5 4 3 3 4 7 10 11 10 8 7 6 6 6 7 7 5 4 4 5 4 4 4 3 1 0 0 0 0 0
5 6 7 7 8 8 9 9 8 6 6 6 6 6 6 5 4 5 7 10 10 9 8 7 6 5 6 8 8 7 4 4 5 5 4 3 3 1 0 0 0 0 0
5 6 8 9 9 8 9 10 10 9 8 8 7 7 8 7 6 6 7 9 9 8 7 7 6 5 5 7 9 7 5 3 3 3 3 3 3 2 1 0 0 0 0
4 5 7 9 9 8 8 10 12 12 11 9 7 7 8 7 6 6 7 8 8 7 7 7 6 5 5 7 9 7 3 1 1 1 2 3 3 2 1 0 0 0 0
Wind_Speed
6 4 3 4 3 2 2 2 2 1 1 1 1 0 0 1 0 0 1 1 1 2 2 2 2 3 3 3 2 2 2 1 2 2 2 1 0 0 1 2 3 3 3
5 5 4 3 3 2 2 2 2 1 1 1 0 0 1 0 1 1 1 1 1 2 2 2 3 2 3 3 3 3 2 2 2 3 3 2 1 1 2 2 2 2 3
6 5 4 3 3 2 2 2 1 1 1 1 0 0 1 0 0 1 1 1 1 1 2 2 2 2 3 2 3 3 2 2 2 2 3 2 1 1 2 2 1 1 2
6 5 4 3 2 2 2 2 2 2 1 1 1 1 1 1 0 1 1 1 1 2 1 2 2 2 3 3 3 3 3 3 3 2 3 2 1 1 1 2 1 1 2
4 4 4 3 2 2 2 2 2 2 2 2 2 2 2 2 1 1 1 1 1 2 2 2 1 2 2 2 3 3 3 2 2 2 2 2 1 1 1 2 2 2 2
4 3 3 2 2 2 2 2 2 2 2 2 2 2 2 1 2 2 1 1 1 2 2 2 2 1 1 1 3 4 3 3 3 2 2 2 2 2 2 2 1 1 1
3 3 3 3 3 3 3 2 2 2 2 2 2 2 1 0 1 1 1 1 2 2 3 3 3 3 2 2 3 3 4 4 3 3 2 2 2 2 2 3 2 2 2
3 3 3 3 3 3 3 2 2 2 2 2 2 2 2 1 1 1 1 2 2 2 2 2 2 2 3 3 3 2 2 2 3 2 2 3 2 2 2 3 3 2 1
2 2 2 2 2 3 3 3 2 2 3 3 2 2 2 2 2 2 2 2 2 3 2 2 1 1 2 3 2 2 3 2 2 2 2 2 3 3 3 2 2 1 1
2 2 2 2 3 3 3 3 2 2 3 3 3 2 2 2 2 3 3 3 3 2 2 1 0 2 2 2 2 2 3 3 3 3 2 3 3 3 3 2 2 2 1
1 1 2 2 3 3 2 2 3 3 3 3 3 3 3 3 3 4 3 2 2 2 2 1 0 0 1 2 2 2 3 3 3 3 2 2 1 1 1 1 2 2 2
1 2 2 3 4 2 2 2 3 4 4 3 3 3 3 3 3 4 5 4 4 2 2 1 0 3 3 4 3 3 4 3 2 2 1 1 0 0 1 1 1 2 2
1 2 3 3 3 3 3 3 3 3 4 4 3 4 3 2 3 5 6 6 5 3 2 2 2 4 4 3 4 4 3 2 2 2 1 1 1 0 0 1 1 1 1
2 2 3 3 4 4 4 4 4 4 4 4 4 4 2 2 2 2 3 3 4 3 2 2 3 4 4 3 2 2 2 2 2 2 1 1 1 0 0 0 1 1 1
2 3 3 3 3 3 3 3 4 3 4 4 3 2 2 2 2 3 2 2 2 2 2 3 3 2 2 2 2 2 2 2 2 1 1 0 0 1 1 0 1 1 1
2 3 3 3 2 3 3 2 1 3 4 4 4 3 2 3 4 4 4 3 4 3 2 3 3 2 2 2 2 2 2 1 1 1 1 0 0 1 1 1 1 1 2
3 4 4 3 2 2 2 3 3 2 2 4 5 5 6 5 5 5 5 4 4 3 3 4 3 3 3 3 2 1 1 1 1 1 1 0 1 1 1 1 1 1 1
4 4 4 3 3 3 3 3 4 4 3 3 4 7 8 8 7 6 4 2 2 3 4 3 3 3 2 2 2 1 1 1 1 1 1 0 1 1 1 2 2 2 2
4 3 3 3 3 3 3 3 3 4 3 3 3 3 6 7 6 6 5 4 4 3 3 3 2 2 2 1 1 1 1 1 1 1 1 1 1 1 2 2 2 3 3
3 4 4 4 4 3 3 3 3 2 3 2 3 2 3 4 3 4 4 4 4 3 2 2 1 1 1 1 1 1 1 1 1 1 2 2 2 2 2 2 2 2 2
4 4 6 5 4 3 3 3 3 3 3 2 2 2 4 3 3 3 3 3 3 3 2 2 2 1 1 1 1 1 1 1 1 2 2 2 2 2 2 2 2 3 3
4 4 4 4 3 3 3 3 3 3 3 2 1 2 5 3 2 2 3 3 2 2 2 2 2 2 1 1 1 1 1 1 1 2 1 2 2 2 2 2 2 3 2
4 5 4 4 4 3 4 3 3 2 2 2 2 1 2 2 2 2 2 1 1 2 2 2 2 2 2 1 1 1 1 1 2 2 2 2 3 2 2 2 3 3 3
5 5 5 4 4 3 3 3 3 3 2 2 1 1 2 2 2 2 2 1 1 1 1 1 2 2 1 0 1 1 0 1 2 2 3 3 3 3 2 3 3 4 3
5 5 4 4 3 3 3 2 2 2 2 2 1 1 2 2 2 2 2 1 1 1 2 2 1 1 1 1 1 1 1 0 1 2 3 3 3 4 4 4 3 3 3
4 4 3 3 3 3 3 2 2 2 2 2 2 1 2 2 1 1 1 1 1 1 2 1 1 1 1 1 1 2 1 0 1 3 4 3 3 3 4 3 4 3 3
Wind_Direction
159 157 149 156 163 160 144 139 125 102 112 93 42 39 264 267 273 335 295 307 310 314 313 324 320 317 315 314 317 308 293 289 279 285 280 283 272 285 215 210 186 188 188
150 149 153 152 157 170 159 145 138 144 153 131 152 285 272 360 358 320 314 340 341 329 325 326 318 319 325 319 319 311 305 300 281 282 280 287 261 218 222 225 211 203 189
147 150 154 165 174 180 168 161 156 150 164 117 104 312 323 14 8 328 334 330 319 314 321 317 317 328 317 317 305 303 299 299 289 278 283 284 289 273 262 258 225 222 216
152 154 156 175 184 186 171 166 172 173 190 191 220 243 257 286 302 295 314 313 311 330 335 328 322 316 317 314 309 314 312 309 292 286 279 275 280 273 265 274 267 248 252
141 148 154 163 164 176 183 191 193 199 210 201 220 234 242 250 284 8 294 289 315 316 317 319 317 331 339 325 328 325 320 317 313 304 293 298 307 298 288 286 283 278 266
144 154 155 160 175 188 205 214 212 216 223 213 221 239 250 277 36 37 7 341 336 316 309 305 283 291 320 334 330 321 311 297 302 300 299 308 316 315 300 291 284 275 277
149 157 167 181 189 196 215 209 223 231 227 220 228 227 189 303 38 61 3 314 309 305 301 305 305 312 354 346 316 298 306 301 271 268 291 299 296 296 292 285 282 259 261
156 168 174 187 197 203 209 211 216 219 224 226 229 229 199 233 224 186 280 261 272 282 294 298 302 338 342 341 317 317 307 307 278 259 259 276 292 292 279 268 266 270 262
172 193 189 188 204 212 216 216 209 213 226 229 225 227 210 224 219 213 231 258 261 264 264 280 298 2 356 1 336 317 309 304 324 326 298 284 283 280 281 291 288 264 266
193 203 199 201 221 224 222 220 221 221 230 234 231 229 220 215 206 209 223 250 262 263 258 262 321 28 23 1 321 305 305 312 319 308 297 274 256 253 249 235 245 257 261
212 214 206 203 225 222 218 216 217 225 234 231 225 228 220 205 191 195 204 247 270 281 272 263 194 89 292 288 278 272 283 292 292 286 279 263 256 249 238 229 239 235 242
240 230 222 212 228 227 199 225 227 225 227 225 224 230 222 206 194 197 201 229 272 291 295 305 194 200 236 256 256 271 288 299 281 283 298 317 345 8 355 347 289 249 235
273 253 240 231 215 211 214 228 232 227 226 226 224 231 224 211 194 193 202 224 250 268 300 314 280 236 245 239 239 258 276 282 286 294 304 343 18 352 325 355 332 289 228
273 270 250 234 215 201 206 212 222 234 233 230 230 234 222 197 180 183 207 223 236 246 271 286 257 237 251 260 236 234 231 249 265 282 305 342 16 340 297 322 300 288 257
269 273 267 248 227 205 212 225 226 231 232 234 238 235 234 229 202 199 216 229 242 252 269 254 241 222 226 230 225 223 228 226 244 268 273 315 334 312 293 301 301 298 273
273 275 274 271 244 212 209 226 242 234 224 213 215 216 217 200 199 207 218 233 236 217 226 247 241 234 241 244 239 227 219 216 231 249 232 218 251 274 286 278 258 263 278
266 273 274 272 270 253 229 225 231 246 237 229 231 222 219 222 221 227 231 241 244 201 218 239 240 239 242 245 244 241 222 198 195 227 227 237 266 276 283 278 270 272 277
259 269 271 271 272 268 257 243 236 231 230 230 224 219 216 215 219 224 221 212 244 222 233 242 246 243 242 241 242 238 212 179 176 215 229 257 271 275 279 277 276 281 275
274 269 268 274 273 268 264 255 247 235 228 219 204 200 207 206 216 224 206 229 240 241 249 255 259 261 262 250 240 232 205 179 180 209 223 243 264 271 274 274 273 272 270
275 273 269 270 269 267 266 267 260 251 247 222 210 195 173 184 205 205 207 224 238 244 250 251 255 258 258 261 246 232 231 212 204 225 231 232 245 260 267 268 276 279 271
279 275 267 263 259 263 266 271 266 257 260 249 224 182 181 208 217 210 208 215 222 236 242 260 264 258 249 258 260 251 242 241 245 254 252 249 247 250 263 264 267 274 281
274 273 271 266 262 268 272 270 268 266 266 254 231 172 177 206 229 229 227 218 213 221 232 247 269 267 253 267 252 224 270 293 287 290 296 286 274 260 264 265 269 278 280
265 268 270 277 280 267 256 255 263 262 261 257 238 179 179 216 238 246 251 243 213 213 228 232 248 260 254 235 178 147 203 262 287 297 292 283 280 273 267 267 270 275 280
263 264 263 266 274 276 268 266 262 259 252 249 240 205 201 221 236 242 244 236 235 245 242 254 263 270 251 140 95 95 58 311 296 293 289 281 282 281 274 269 266 272 276
264 266 265 265 270 277 273 272 272 268 262 251 241 234 229 229 238 244 235 222 246 264 266 254 249 281 359 70 91 82 54 330 291 305 286 269 265 271 270 268 267 272 283
270 270 274 274 272 280 289 287 276 271 263 259 253 245 240 238 252 269 246 226 240 252 260 253 238 223 177 133 110 120 131 215 287 283 275 270 266 263 270 274 278 276 279